Погода в Новониколаевском

Россия / Волгоградская область     50°58′26″N   42°22′00″E
темп.,
°C
ветер,
м/с
пор.,
м/с
влажн.,
%
обл.,
%
осадки,
мм/ч
давл.,
гПа
погр.,
м
6 мая, чт
чт600:00+8ююз33695 0.0 101832
03:00+7ю34695 0.0 101845
06:00+8ю377346 0.0 1018141
09:00+14ю5855100 0.0 1018637
12:00+16ю6844100 0.0 10171731
15:00+17ю6844100 0.0 10161979
18:00+16ю3655100 0.0 1015231
21:00+13ююв41061100 0.0 1015234
7 мая, пт
пт700:00+13ю41062100 0.0 1014224
03:00+11ююв4968100 0.0 1014177
06:00+11ююз3776100 0.0 1015208
09:00+14з4568100 0.0 1015604
12:00+15сз4472100 1.1 1016535
15:00+15сз226976 2.9 1016897
18:00+14ссв347650 2.1 1016484
21:00+10всв34885 2.1 101756
8 мая, сб
сб800:00+10вюв3393100 0.0 101754
03:00+9вюв3393100 0.0 101649
06:00+11ююв368959 0.0 1015160
09:00+16ю6969100 0.0 1014565
12:00+19ююз81156100 0.3 10131648
15:00+19ю696095 1.2 10121101
18:00+16ююз4976100 0.7 1011192
21:00+13юв3592100 1.6 1011110
9 мая, вс
вс900:00+13ююв51191100 0.1 1009230
03:00+11з3697100 1.6 1009256
06:00+8ссз6992100 1.4 1011606
09:00+7ссз71191100 2.9 1011686
12:00+5ссз81395100 7.9 1012711
15:00+4ссз61397100 21.7 1014702
18:00+5ссз81392100 5.1 1015957
21:00+6ссз71289100 6.3 1015946
10 мая, пн
пн1000:00+6сз81293100 1.6 1015994
03:00+5сз81395100 3.5 10151124
06:00+4ссз91697100 3.4 1014957
09:00+5ссз91594100 5.3 1013887
12:00+7с81294100 0.1 1013622
15:00+10в5885100 0.1 1014910
18:00+8св4791100 0.3 1015468
21:00+8всв21099100 3.6 1015398